When you browse on this site, cookies collect data to enhance your experience and personalize the content and advertising you see.
Visit our Privacy Policy to learn more. By continuing to use the site, you agree to this use of cookies and data.
  • In Denmark
  • List of Countries
  • For 7 days
  • Water Temperature
  • Weather Map
  • Weather Widgets
  • user-avatar
    Login

    Hourly Weather Hobart

    Today, 20 January, Monday

    Time Temperature Precipitation Wind Pressure Humidity
    00:00 +13°C° 0 mm 1 mps 745 mmHg 94%
    01:00 +13°C° 0 mm 1 mps 745 mmHg 94%
    02:00 +12°C° 0 mm 0 mps 745 mmHg 94%
    03:00 +12°C° 0 mm 0 mps 745 mmHg 93%
    04:00 +12°C° 0 mm 0 mps 744 mmHg 94%
    05:00 +13°C° 0 mm 1 mps 744 mmHg 92%
    06:00 +14°C° 0 mm 1 mps 744 mmHg 90%
    07:00 +14°C° 0 mm 1 mps 744 mmHg 88%
    08:00 +15°C° 0 mm 1 mps 744 mmHg 84%
    09:00 +15°C° 0 mm 2 mps 744 mmHg 80%
    10:00 +16°C° 0 mm 2 mps 743 mmHg 74%
    11:00 +16°C° 0 mm 2 mps 743 mmHg 72%
    12:00 +17°C° 0 mm 2 mps 743 mmHg 69%
    13:00 +18°C° 0 mm 2 mps 742 mmHg 67%
    14:00 +17°C° 0 mm 3 mps 742 mmHg 72%
    15:00 +16°C° 0 mm 3 mps 742 mmHg 77%
    16:00 +14°C° 0 mm 3 mps 741 mmHg 82%
    17:00 +14°C° 0 mm 3 mps 741 mmHg 84%
    18:00 +13°C° 0 mm 3 mps 741 mmHg 86%
    19:00 +13°C° 0 mm 3 mps 741 mmHg 88%
    20:00 +13°C° 0.1 mm 3 mps 741 mmHg 89%
    21:00 +13°C° 0.1 mm 3 mps 741 mmHg 90%
    22:00 +12°C° 0 mm 3 mps 741 mmHg 89%
    23:00 +12°C° 0 mm 3 mps 741 mmHg 90%

    Tomorrow, 21 January, Tuesday

    Time Temperature Precipitation Wind Pressure Humidity
    00:00 +12°C° 0 mm 2 mps 741 mmHg 92%
    01:00 +12°C° 0 mm 2 mps 741 mmHg 93%
    02:00 +12°C° 0 mm 2 mps 740 mmHg 93%
    03:00 +12°C° 0 mm 2 mps 740 mmHg 93%
    04:00 +12°C° 0 mm 2 mps 740 mmHg 92%
    05:00 +13°C° 0 mm 2 mps 740 mmHg 88%
    06:00 +13°C° 0 mm 2 mps 741 mmHg 84%
    07:00 +14°C° 0 mm 2 mps 741 mmHg 80%
    08:00 +16°C° 0 mm 3 mps 741 mmHg 72%
    09:00 +17°C° 0 mm 3 mps 741 mmHg 63%
    10:00 +18°C° 0 mm 3 mps 741 mmHg 54%
    11:00 +19°C° 0 mm 3 mps 741 mmHg 53%
    12:00 +19°C° 0 mm 4 mps 741 mmHg 52%
    13:00 +19°C° 0 mm 4 mps 740 mmHg 51%
    14:00 +19°C° 0 mm 4 mps 740 mmHg 55%
    15:00 +18°C° 0 mm 4 mps 740 mmHg 59%
    16:00 +18°C° 0 mm 4 mps 740 mmHg 62%
    17:00 +16°C° 0 mm 3 mps 740 mmHg 67%
    18:00 +14°C° 0 mm 3 mps 740 mmHg 71%
    19:00 +14°C° 0 mm 2 mps 741 mmHg 76%
    20:00 +14°C° 0 mm 2 mps 741 mmHg 79%
    21:00 +13°C° 0 mm 1 mps 741 mmHg 81%
    22:00 +12°C° 0 mm 1 mps 741 mmHg 84%
    23:00 +12°C° 0 mm 1 mps 741 mmHg 84%

    Day after tomorrow, 22 January, Wednesday

    Time Temperature Precipitation Wind Pressure Humidity
    00:00 +12°C° 0 mm 1 mps 741 mmHg 85%
    01:00 +12°C° 0 mm 1 mps 740 mmHg 85%
    02:00 +12°C° 0 mm 2 mps 740 mmHg 89%
    03:00 +10°C° 0 mm 2 mps 740 mmHg 92%
    04:00 +9°C° 0 mm 2 mps 739 mmHg 96%
    05:00 +11°C° 0 mm 3 mps 739 mmHg 89%
    06:00 +12°C° 0 mm 3 mps 739 mmHg 82%
    07:00 +13°C° 0 mm 3 mps 738 mmHg 75%
    08:00 +17°C° 0 mm 3 mps 738 mmHg 61%
    09:00 +20°C° 0 mm 3 mps 737 mmHg 47%
    10:00 +23°C° 0 mm 4 mps 737 mmHg 33%
    11:00 +26°C° 0 mm 4 mps 737 mmHg 31%
    12:00 +27°C° 0 mm 5 mps 736 mmHg 30%
    13:00 +29°C° 0 mm 6 mps 735 mmHg 28%
    14:00 +28°C° 0 mm 5 mps 735 mmHg 31%
    15:00 +28°C° 0 mm 5 mps 734 mmHg 34%
    16:00 +27°C° 0 mm 4 mps 733 mmHg 36%
    17:00 +26°C° 0 mm 4 mps 733 mmHg 39%
    18:00 +25°C° 0 mm 3 mps 733 mmHg 41%
    19:00 +25°C° 0 mm 3 mps 733 mmHg 44%
    20:00 +21°C° 0.2 mm 2 mps 733 mmHg 57%
    21:00 +19°C° 0.2 mm 2 mps 732 mmHg 70%
    22:00 +17°C° 0.2 mm 2 mps 732 mmHg 84%
    23:00 +16°C° 2.4 mm 2 mps 731 mmHg 88%

    23 January, Thursday

    Time Temperature Precipitation Wind Pressure Humidity
    00:00 +16°C° 2.4 mm 2 mps 731 mmHg 92%
    01:00 +16°C° 2.4 mm 2 mps 731 mmHg 95%
    02:00 +15°C° 0.5 mm 2 mps 730 mmHg 95%
    03:00 +14°C° 0.5 mm 2 mps 730 mmHg 95%
    04:00 +14°C° 0.5 mm 1 mps 729 mmHg 95%
    05:00 +14°C° 0.1 mm 1 mps 729 mmHg 92%
    06:00 +14°C° 0.1 mm 2 mps 729 mmHg 88%
    07:00 +14°C° 0.1 mm 2 mps 729 mmHg 85%
    08:00 +16°C° 0 mm 3 mps 729 mmHg 72%
    09:00 +18°C° 0 mm 3 mps 729 mmHg 59%
    10:00 +19°C° 0 mm 4 mps 729 mmHg 46%
    11:00 +19°C° 0.2 mm 4 mps 729 mmHg 46%
    12:00 +20°C° 0.2 mm 4 mps 729 mmHg 46%
    13:00 +20°C° 0.2 mm 4 mps 729 mmHg 45%
    14:00 +18°C° 0.5 mm 4 mps 729 mmHg 56%
    15:00 +15°C° 0.5 mm 4 mps 728 mmHg 66%
    16:00 +13°C° 0.5 mm 4 mps 728 mmHg 76%
    17:00 +12°C° 0.5 mm 5 mps 729 mmHg 78%
    18:00 +12°C° 0.5 mm 5 mps 730 mmHg 80%
    19:00 +10°C° 0.5 mm 6 mps 730 mmHg 81%
    20:00 +9°C° 0 mm 5 mps 731 mmHg 83%
    21:00 +10°C° 0 mm 4 mps 732 mmHg 84%
    22:00 +9°C° 0 mm 3 mps 734 mmHg 85%
    23:00 +8°C° 0 mm 4 mps 734 mmHg 83%

    24 January, Friday

    Time Temperature Precipitation Wind Pressure Humidity
    00:00 +8°C° 0 mm 4 mps 734 mmHg 82%
    01:00 +8°C° 0 mm 4 mps 734 mmHg 80%
    02:00 +8°C° 0 mm 4 mps 734 mmHg 80%
    03:00 +8°C° 0 mm 4 mps 734 mmHg 80%
    04:00 +8°C° 0 mm 4 mps 734 mmHg 80%
    05:00 +10°C° 0 mm 4 mps 734 mmHg 77%
    06:00 +10°C° 0 mm 5 mps 734 mmHg 74%
    07:00 +12°C° 0 mm 5 mps 735 mmHg 71%
    08:00 +13°C° 0 mm 5 mps 735 mmHg 67%
    09:00 +14°C° 0 mm 6 mps 735 mmHg 62%
    10:00 +15°C° 0 mm 6 mps 735 mmHg 58%
    11:00 +15°C° 0.2 mm 6 mps 735 mmHg 65%
    12:00 +14°C° 0.2 mm 5 mps 735 mmHg 73%
    13:00 +14°C° 0.2 mm 5 mps 734 mmHg 80%
    14:00 +16°C° 0.1 mm 6 mps 735 mmHg 71%
    15:00 +17°C° 0.1 mm 6 mps 735 mmHg 61%
    16:00 +20°C° 0.1 mm 7 mps 735 mmHg 51%
    17:00 +18°C° 0 mm 7 mps 736 mmHg 54%
    18:00 +17°C° 0 mm 6 mps 736 mmHg 58%
    19:00 +16°C° 0 mm 6 mps 737 mmHg 61%
    20:00 +14°C° 0 mm 5 mps 737 mmHg 66%
    21:00 +13°C° 0 mm 4 mps 738 mmHg 72%
    22:00 +13°C° 0 mm 2 mps 739 mmHg 77%
    23:00 +13°C° 0 mm 2 mps 739 mmHg 76%

    25 January, Saturday

    Time Temperature Precipitation Wind Pressure Humidity
    00:00 +13°C° 0 mm 2 mps 739 mmHg 75%
    01:00 +13°C° 0 mm 2 mps 739 mmHg 74%
    02:00 +14°C° 0 mm 2 mps 739 mmHg 74%
    03:00 +13°C° 0 mm 3 mps 739 mmHg 74%
    04:00 +13°C° 0 mm 3 mps 739 mmHg 73%
    05:00 +13°C° 0 mm 3 mps 740 mmHg 72%
    06:00 +14°C° 0 mm 3 mps 740 mmHg 70%
    07:00 +16°C° 0 mm 3 mps 740 mmHg 68%
    08:00 +17°C° 0 mm 4 mps 741 mmHg 64%
    09:00 +18°C° 0 mm 4 mps 741 mmHg 60%
    10:00 +19°C° 0 mm 4 mps 741 mmHg 56%
    11:00 +19°C° 0 mm 4 mps 741 mmHg 53%
    12:00 +20°C° 0 mm 4 mps 741 mmHg 50%
    13:00 +21°C° 0 mm 4 mps 741 mmHg 47%
    14:00 +22°C° 0 mm 3 mps 741 mmHg 46%
    15:00 +24°C° 0 mm 3 mps 741 mmHg 44%
    16:00 +24°C° 0 mm 2 mps 741 mmHg 42%
    17:00 +23°C° 0 mm 2 mps 741 mmHg 47%
    18:00 +21°C° 0 mm 2 mps 742 mmHg 52%
    19:00 +20°C° 0 mm 2 mps 742 mmHg 57%
    20:00 +19°C° 0 mm 2 mps 742 mmHg 62%
    21:00 +17°C° 0 mm 2 mps 742 mmHg 66%
    22:00 +16°C° 0 mm 1 mps 742 mmHg 71%
    23:00 +15°C° 0 mm 2 mps 742 mmHg 75%
    Show more